Weather History for Naples, FL

Change the Weather History Date:

Sunday, December 30, 2012

  Actual Average Record
Temperature  
Mean Temperature 56 °F 65 °F  
Max Temperature 65 °F 75 °F 86 °F (1990)
Min Temperature 47 °F 55 °F 34 °F (1961)
Degree Days  
Heating Degree Days 9 3  
Month to date heating degree days 34 58  
Since 1 July heating degree days 47 72  
Cooling Degree Days 0 3  
Month to date cooling degree days 154 119  
Year to date cooling degree days 4120 3938  
Growing Degree Days 5 (Base 50)    
Moisture  
Dew Point 45 °F    
Average Humidity 64    
Maximum Humidity 83    
Minimum Humidity 44    
Precipitation  
Precipitation 0.00 in 0.04 in 0.96 in (1983)
Month to date precipitation 1.78 1.41  
Year to date precipitation 37.93 51.85  
Snow  
Snow 0.00 in - - ()
Month to date snowfall 0.0  
Since 1 July snowfall 0.0  
Snow Depth 0.00 in    
Sea Level Pressure  
Sea Level Pressure 30.25 in    
Wind  
Wind Speed 10 mph (NNE)    
Max Wind Speed 18 mph    
Max Gust Speed 23 mph    
Visibility 10 miles    
Events      
T = Trace of Precipitation, MM = Missing Value Source: NWS Daily Summary

Daily Weather History Graph

Daily Weather History Graph

Search for Another Location

Airport:

Trip Planner

Search our weather history database for the weather conditions in past years. The results will help you decide how hot, cold, wet, or windy it might be!

Date:

Astronomy

Dec. 30, 2012 Rise Set
Actual Time 7:14 AM EST 5:45 PM EST
Civil Twilight 6:48 AM EST 6:11 PM EST
Nautical Twilight 6:20 AM EST 6:39 PM EST
Astronomical Twilight 5:51 AM EST 7:08 PM EST
Moon 8:00 PM EST (12/30) 8:35 AM EST (12/30)
Length of Visible Light 11h 22m
Length of Day
10h 31m
Waning Gibbous, 95% of the Moon is Illuminated
Dec 30
Waning Gibbous
Jan 4
Last Quarter
Jan 11
New
Jan 18
First Quarter
Jan 26
Full

Hourly Weather History & Observations

Time (EST) Temp. Dew Point Humidity Pressure Visibility Wind Dir Wind Speed Gust Speed Precip Events Conditions
12:53 AM 59.0 °F 53.1 °F 81% 30.15 in 10.0 mi North 5.8 mph - N/A   Clear
1:53 AM 57.9 °F 50.0 °F 75% 30.16 in 10.0 mi North 9.2 mph - N/A   Clear
2:53 AM 55.9 °F 50.0 °F 80% 30.17 in 10.0 mi North 5.8 mph - N/A   Clear
3:53 AM 55.0 °F 48.9 °F 80% 30.18 in 10.0 mi North 5.8 mph - N/A   Clear
4:53 AM 53.1 °F 46.9 °F 80% 30.19 in 10.0 mi North 10.4 mph 18.4 mph N/A   Clear
5:53 AM 51.1 °F 43.0 °F 74% 30.22 in 10.0 mi North 9.2 mph - N/A   Clear
6:53 AM 48.0 °F 41.0 °F 77% 30.24 in 10.0 mi North 5.8 mph 16.1 mph N/A   Clear
7:53 AM 46.9 °F 39.9 °F 77% 30.27 in 10.0 mi North 11.5 mph - N/A   Clear
8:53 AM 48.0 °F 37.9 °F 68% 30.30 in 10.0 mi NNE 12.7 mph 19.6 mph N/A   Clear
9:53 AM 50.0 °F 37.9 °F 63% 30.30 in 10.0 mi NE 13.8 mph 23.0 mph N/A   Clear
10:53 AM 53.1 °F 39.0 °F 59% 30.30 in 10.0 mi NE 13.8 mph 21.9 mph N/A   Clear
11:53 AM 57.0 °F 39.9 °F 53% 30.29 in 10.0 mi NE 17.3 mph - N/A   Clear
12:53 PM 61.0 °F 42.1 °F 50% 30.25 in 10.0 mi NE 16.1 mph 23.0 mph N/A   Clear
1:53 PM 63.0 °F 43.0 °F 48% 30.24 in 10.0 mi NNE 11.5 mph 17.3 mph N/A   Clear
2:53 PM 64.9 °F 43.0 °F 45% 30.24 in 10.0 mi NE 11.5 mph - N/A   Clear
3:53 PM 63.0 °F 43.0 °F 48% 30.25 in 10.0 mi NE 13.8 mph 21.9 mph N/A   Clear
4:53 PM 62.1 °F 44.1 °F 52% 30.26 in 10.0 mi NE 15.0 mph - N/A   Clear
5:53 PM 57.9 °F 46.0 °F 65% 30.27 in 10.0 mi NE 9.2 mph - N/A   Clear
6:53 PM 55.9 °F 48.0 °F 75% 30.28 in 10.0 mi NE 8.1 mph - N/A   Clear
7:53 PM 55.9 °F 48.0 °F 75% 30.29 in 10.0 mi NE 10.4 mph - N/A   Clear
8:53 PM 54.0 °F 48.0 °F 80% 30.29 in 10.0 mi NE 6.9 mph - N/A   Clear
9:53 PM 54.0 °F 48.0 °F 80% 30.29 in 10.0 mi NNE 6.9 mph - N/A   Clear
10:53 PM 52.0 °F 46.9 °F 83% 30.30 in 10.0 mi NE 5.8 mph - N/A   Clear
11:53 PM 52.0 °F 48.0 °F 86% 30.29 in 10.0 mi NNE 4.6 mph - N/A   Clear